weather.gov     
National Weather Service

Terminal Aerodrome Forecast
NWS Homepage
This page is being discontinued on March 12, 2014.
The same data is available at this site. Please update your bookmarks.
Thank you, and we apologize for the inconvenience.
Please send an email to SR-SRH.Webmaster@noaa.gov with any concerns.


Current Version
Previous Version:    01  02  03  04  05  06  07  08  09  10  11  12  13  14  15  16  17  18  19  20  21  22  23  24  25  26  27  
[Printable]
298
FTUS44 KSHV 011100
TAFGGG
TAF
KGGG 011137Z 0112/0212 17012KT P6SM VCSH OVC008
     FM011500 21012G21KT 5SM -RA BR VCTS OVC009CB
     FM011900 30011G20KT P6SM OVC025
     FM012200 32012G23KT P6SM BKN100
     FM020300 34012G23KT P6SM SKC=


U.S. Dept. of Commerce
NOAA National Weather Service
1325 East West Highway
Silver Spring, MD 20910
E-mail: w-nws.webmaster@noaa.gov
Page last modified: May 16, 2007
NATIONAL WEATHER SERVICE: for Safety, for Work, for Fun - FOR LIFE